Погода в Беломестном

Россия / Белгородская область     50°40′41″N   36°38′10″E
темп.,
°C
ветер,
м/с
пор.,
м/с
влажн.,
%
обл.,
%
осадки,
мм/ч
давл.,
гПа
погр.,
м
15 мая, сб
сб1500:00+15юз33909 0.6 101031
03:00+13ююз22905 0.7 101022
06:00+12ю3692100 0.0 1011146
09:00+16ююз467824 0.0 1012461
12:00+21юз575622 0.0 10121507
15:00+22ююз695115 0.0 10122337
18:00+17юз347387 0.1 101353
21:00+15ююз227558 0.1 101312
16 мая, вс
вс1600:00+15ю227336 0.0 101326
03:00+13ююв228117 0.0 101421
06:00+14ююв22810 0.0 101417
09:00+19ююв226564 0.0 1014351
12:00+22юв2251100 0.0 10141278
15:00+23всв2247100 0.0 10131555
18:00+22св246799 0.0 1011109
21:00+17св4783100 0.3 1011104
17 мая, пн
пн1700:00+16всв47918 0.0 1010105
03:00+14всв41085100 0.0 1009163
06:00+14в41185100 0.0 1007216
09:00+20вюв61466100 0.0 1007513
12:00+23юв8145969 0.0 10061203
15:00+24юв71060100 0.0 10061218
18:00+22вюв6117097 0.0 1005440
21:00+19юв5127996 0.0 1005286
18 мая, вт
вт1800:00+17ю5118940 0.0 1006394
03:00+15ю489674 0.1 1006227
06:00+14ю4794100 0.1 1008460
09:00+17ю4678100 0.1 1009739
12:00+20ююз5666100 0.1 10091364
15:00+20ю576745 2.0 10081170
18:00+19ю48759 1.1 1007391
21:00+15ююв4108734 1.6 1007164
19 мая, ср
ср1900:00+13ююв379599 0.3 1006162
03:00+14ююз4796100 1.9 1006504
06:00+13зюз61096100 0.8 1007573
09:00+13з6109123 2.1 1008609
12:00+16з697537 0.5 10101285
15:00+19зюз79555 0.6 10112060
18:00+18зюз47666 0.0 1011511
21:00+13юз1178100 0.0 101210